Weerstation Grootegast  Weerstation Grootegast


15 daagse weersverwachting Braine-l'Alleud (BE)

  • Overzicht
  • Per uur
  • 15 dagen
  • Extra
  • Vergelijk
  • Kaarten
  • Dagkaart
  • Meer »
  • Info
  • Statistieken
  • Directe link
    Temp 6h Neerslag Wind  
 05:53     21:46    Daglengte: 15:53 Vandaag
08:00
16°
 
1
14:00
25°
 
3
20:00
24°
 
3
 05:54     21:45    Daglengte: 15:51 Morgen
02:00
17°
 
2
08:00
18°
 
1
14:00
27°
 
2
20:00
26°
 
4
 05:55     21:44    Daglengte: 15:49 Vrijdag 20 Jul
02:00
18°
 
2
08:00
19°
 
1
14:00
27°
 
2
20:00
23°
 
5
 05:56     21:43    Daglengte: 15:47 Zaterdag 21 Jul
02:00
18°
25.1 mm
3
Locatie info
Region: Wallonia
Latitude: 50.6836°N
Longitude: 4.3678°E
93 masl
Temp/Neerslag /Baro Onweer/Dauwpunt
    Temp Baro 1h Neerslag Dauwpunt Wind UV Bewolking  
 05:53     21:46    Daglengte: 15:53 Vandaag
07:00
14°
1018.7 hPa   10.9°
1
Windvlaag: 0.6 m/s
54%
08:00
16°
1018.7 hPa   11.3°
1
Windvlaag: 0.3 m/s
55%
09:00
18°
1018.9 hPa   10.3°
2
Windvlaag: 0.4 m/s
59%
10:00
20°
1018.9 hPa   9.4°
2
Windvlaag: 0.7 m/s
42%
11:00
22°
1019.0 hPa   9.0°
3
Windvlaag: 1.5 m/s
41%
12:00
23°
1018.9 hPa   9.5°
3
Windvlaag: 1.8 m/s
22%
13:00
24°
1018.8 hPa   9.9°
3
Windvlaag: 1.4 m/s
24%
14:00
25°
1018.4 hPa   9.7°
3
Windvlaag: 1.1 m/s
29%
15:00
25°
1018.1 hPa   9.4°
3
Windvlaag: 1.1 m/s
30%
16:00
25°
1017.9 hPa   9.2°
3
Windvlaag: 0.8 m/s
36%
17:00
26°
1017.8 hPa   9.3°
2
Windvlaag: 0.4 m/s
66%
18:00
25°
1017.5 hPa   9.1°
2
Windvlaag: -0.8 m/s
31%
19:00
25°
1017.4 hPa   9.2°
2
Windvlaag: -1.7 m/s
31%
20:00
24°
1017.4 hPa   11.0°
3
Windvlaag: -1.8 m/s
25%
21:00
23°
1017.6 hPa   11.8°
2
Windvlaag: -1.5 m/s
19%
22:00
21°
1018.1 hPa   11.4°
3
Windvlaag: -2.4 m/s
11%
23:00
20°
1018.5 hPa   11.4°
3
Windvlaag: -2.7 m/s
7%
 05:54     21:45    Daglengte: 15:51 Morgen
00:00
19°
1018.7 hPa   11.3°
3
Windvlaag: -2 m/s
7%
01:00
18°
1018.9 hPa   11.6°
2
Windvlaag: -1.3 m/s
4%
02:00
17°
1019.0 hPa   11.9°
2
Windvlaag: -0.9 m/s
2%
03:00
16°
1019.0 hPa   12.1°
2
Windvlaag: -0.6 m/s
0%
04:00
16°
1018.7 hPa   12.1°
1
Windvlaag: -0.4 m/s
0%
05:00
15°
1018.5 hPa   12.2°
1
Windvlaag: -0 m/s
1%
06:00
15°
1018.4 hPa   12.2°
1
Windvlaag: 0 m/s
0%
07:00
16°
1018.4 hPa   12.4°
1
Windvlaag: -0.1 m/s
0%
08:00
18°
1018.5 hPa   12.8°
1
Windvlaag: -1.1 m/s
0%
09:00
20°
1018.7 hPa   13.1°
1
Windvlaag: -1.3 m/s
3%
10:00
22°
1018.7 hPa   12.5°
1
Windvlaag: -1.5 m/s
13%
11:00
24°
1018.6 hPa   11.8°
2
Windvlaag: -1.7 m/s
23%
12:00
25°
1018.3 hPa   11.1°
2
Windvlaag: -1.9 m/s
31%
13:00
26°
1018.2 hPa   10.8°
2
Windvlaag: -1.9 m/s
39%
14:00
27°
Voelt als: 26.5°
1017.8 hPa   10.7°
2
Windvlaag: -2 m/s
63%
15:00
27°
Voelt als: 26.8°
1017.4 hPa   10.7°
2
Windvlaag: -2.2 m/s
49%
16:00
28°
Voelt als: 27.0°
1017.0 hPa   10.6°
2
Windvlaag: -2.3 m/s
62%
17:00
28°
Voelt als: 27.0°
1016.7 hPa   10.3°
3
Windvlaag: -2.3 m/s
35%
18:00
27°
Voelt als: 26.8°
1016.4 hPa   10.1°
3
Windvlaag: -2.3 m/s
18%
19:00
27°
Voelt als: 26.5°
1016.2 hPa   9.9°
3
Windvlaag: -2.3 m/s
36%
20:00
26°
1016.2 hPa   9.9°
4
Windvlaag: -2.1 m/s
33%
21:00
24°
1016.4 hPa   10.4°
4
Windvlaag: -1.9 m/s
57%
22:00
22°
1016.9 hPa   9.7°
3
Windvlaag: -2.4 m/s
52%
23:00
21°
1016.9 hPa   9.7°
3
Windvlaag: -1.9 m/s
66%
 05:55     21:44    Daglengte: 15:49 Vrijdag 20 Jul
00:00
19°
1016.8 hPa   10.2°
2
Windvlaag: -1 m/s
52%
01:00
18°
1016.6 hPa   10.8°
2
Windvlaag: -0.9 m/s
14%
02:00
18°
1016.3 hPa   11.3°
2
Windvlaag: -0.5 m/s
32%
03:00
17°
1015.7 hPa   11.4°
2
Windvlaag: -0.2 m/s
46%
04:00
17°
1015.3 hPa   11.6°
2
Windvlaag: 0 m/s
61%
05:00
17°
1014.7 hPa   11.7°
2
Windvlaag: -0.2 m/s
53%
06:00
16°
1014.5 hPa   11.6°
2
Windvlaag: -0.3 m/s
77%
07:00
17°
1014.4 hPa
66%
11.3°
1
Windvlaag: -0.6 m/s
79%
08:00
19°
1014.5 hPa
65%
12.0°
1
Windvlaag: -0.6 m/s
79%
09:00
21°
1014.4 hPa
66%
11.3°
1
Windvlaag: -0.6 m/s
74%
10:00
22°
1014.5 hPa
73%
10.9°
2
Windvlaag: -0.5 m/s
94%
11:00
24°
1014.2 hPa   9.9°
2
Windvlaag: -0.4 m/s
81%
12:00
25°
1014.2 hPa
12%
10.4°
3
Windvlaag: -1.4 m/s
75%
13:00
26°
1013.9 hPa
24%
10.5°
3
Windvlaag: -2.1 m/s
73%
14:00
27°
Voelt als: 26.6°
1013.5 hPa
87%
10.8°
2
Windvlaag: -2.2 m/s
75%
15:00
27°
Voelt als: 27.0°
1012.9 hPa
81%
11.0°
3
Windvlaag: -2 m/s
96%
16:00
28°
Voelt als: 27.2°
1012.5 hPa
38%
11.1°
3
Windvlaag: -1.8 m/s
72%
17:00
28°
Voelt als: 27.0°
1012.0 hPa
88%
11.0°
3
Windvlaag: -0.8 m/s
85%
18:00
27°
Voelt als: 26.5°
1011.7 hPa
84%
11.6°
3
Windvlaag: -0.3 m/s
89%
19:00
25°
1011.4 hPa
42%
12.1°
4
Windvlaag: -0 m/s
93%
20:00
23°
1011.3 hPa
39%
14.5°
5
Windvlaag: 0.6 m/s
83%
21:00
22°
1011.3 hPa
46%
14.8°
4
Windvlaag: -1 m/s
81%
22:00
21°
1011.5 hPa 5.2 mm
98%
14.5°
4
Windvlaag: -1.6 m/s
94%
23:00
20°
1011.5 hPa 5.7 mm
100%
14.5°
4
Windvlaag: -0.5 m/s
93%
 05:56     21:43    Daglengte: 15:47 Zaterdag 21 Jul
00:00
19°
1011.4 hPa
90%
14.5°
4
Windvlaag: 0.2 m/s
89%
01:00
19°
1011.3 hPa 6.8 mm
28%
14.6°
3
Windvlaag: 0.4 m/s
89%
02:00
18°
1011.2 hPa 7.4 mm
22%
14.5°
3
Windvlaag: 0.3 m/s
89%
03:00
17°
1011.3 hPa
22%
13.8°
3
Windvlaag: 7.5 m/s
92%
04:00
17°
1011.1 hPa
39%
14.0°
3
Windvlaag: 5.7 m/s
91%
05:00
17°
1011.0 hPa
92%
14.2°
3
Windvlaag: 5.6 m/s
84%
06:00
17°
1010.8 hPa
44%
14.2°
3
Windvlaag: 6 m/s
68%
Temp/Neerslag /Baro Onweer/Dauwpunt
    Temp Baro Neerslag Dauwpunt Wind Bewolking  
 05:53     21:46    Daglengte: 15:53 Vandaag
08:00
16°
1018.7 hPa   11.3°
1
55%
11:00
22°
1019.0 hPa   9.0°
3
41%
14:00
25°
1018.4 hPa   9.7°
3
29%
17:00
26°
1017.8 hPa   9.3°
2
66%
20:00
24°
1017.4 hPa   11.0°
3
25%
23:00
20°
1018.5 hPa   11.4°
3
7%
 05:54     21:45    Daglengte: 15:51 Morgen
02:00
17°
1019.0 hPa   11.9°
2
2%
05:00
15°
1018.5 hPa   12.2°
1
1%
08:00
18°
1018.5 hPa   12.8°
1
0%
11:00
24°
1018.6 hPa   11.8°
2
23%
14:00
27°
Voelt als: 26.5°
1017.8 hPa   10.7°
2
63%
17:00
28°
Voelt als: 27.0°
1016.7 hPa   10.3°
3
35%
20:00
26°
1016.2 hPa   9.9°
4
33%
23:00
21°
1016.9 hPa   9.7°
3
66%
 05:55     21:44    Daglengte: 15:49 Vrijdag 20 Jul
02:00
18°
1016.3 hPa   11.3°
2
32%
05:00
17°
1014.7 hPa   11.7°
2
53%
08:00
19°
1014.5 hPa   12.0°
1
79%
11:00
24°
1014.2 hPa   9.9°
2
81%
14:00
27°
Voelt als: 26.6°
1013.5 hPa   10.8°
2
75%
17:00
28°
Voelt als: 27.0°
1012.0 hPa   11.0°
3
85%
20:00
23°
1011.3 hPa   14.5°
5
83%
23:00
20°
1011.5 hPa 10.9 mm 14.5°
4
93%
 05:56     21:43    Daglengte: 15:47 Zaterdag 21 Jul
02:00
18°
1011.2 hPa 14.2 mm 14.5°
3
89%
05:00
17°
1011.0 hPa   14.2°
3
84%
08:00
17°
1010.8 hPa   14.8°
3
48%
11:00
21°
1011.7 hPa   14.7°
3
79%
14:00
23°
1012.1 hPa   14.3°
4
90%
17:00
23°
1012.2 hPa   13.2°
4
84%
20:00
23°
1012.4 hPa   12.1°
5
77%
23:00
20°
1013.6 hPa   13.1°
4
78%
 05:58     21:41    Daglengte: 15:43 Zondag 22 Jul
02:00
17°
1014.7 hPa   13.3°
3
79%
05:00
17°
1015.4 hPa   13.6°
3
48%
08:00
17°
1016.2 hPa   14.0°
3
17%
11:00
21°
1016.3 hPa   13.7°
3
43%
14:00
24°
1016.3 hPa   12.1°
4
70%
17:00
24°
1016.2 hPa   11.6°
4
58%
20:00
23°
1016.0 hPa   11.0°
4
47%
23:00
19°
1017.1 hPa   12.9°
3
23%
 05:59     21:40    Daglengte: 15:41 Maandag 23 Jul
02:00
16°
1018.1 hPa   13.1°
2
0%
05:00
17°
1018.2 hPa   13.5°
1
1%
08:00
18°
1018.3 hPa   14.0°
1
1%
11:00
22°
1018.0 hPa   14.1°
1
47%
14:00
25°
1017.7 hPa   13.2°
2
92%
17:00
25°
1016.9 hPa   13.3°
2
51%
20:00
25°
1016.2 hPa   13.6°
3
10%
23:00
22°
1016.0 hPa   13.8°
3
5%
 06:00     21:39    Daglengte: 15:39 Dinsdag 24 Jul
02:00
19°
1015.7 hPa   13.6°
3
0%
05:00
19°
1014.8 hPa   13.0°
3
1%
08:00
20°
1014.0 hPa   12.4°
2
2%
11:00
25°
1013.2 hPa   12.5°
2
38%
14:00
30°
Voelt als: 28.6°
1012.3 hPa   10.4°
2
73%
17:00
29°
Voelt als: 28.2°
1011.3 hPa   11.2°
2
76%
20:00
28°
Voelt als: 27.8°
1010.4 hPa   12.1°
3
78%
23:00
25°
1010.6 hPa   13.2°
3
54%
 06:02     21:37    Daglengte: 15:35 Woensdag 25 Jul
02:00
22°
1010.7 hPa   13.5°
2
29%
05:00
21°
1010.5 hPa   14.0°
2
53%
08:00
21°
1010.4 hPa   14.7°
2
77%
14:00
29°
Voelt als: 29.2°
1010.1 hPa 5.1 mm 14.9°
2
44%
20:00
28°
Voelt als: 27.8°
1009.5 hPa 2.3 mm 13.9°
2
47%
 06:03     21:36    Daglengte: 15:33 Donderdag 26 Jul
02:00
20°
1010.3 hPa 2.0 mm 15.0°
2
26%
08:00
21°
1010.4 hPa   16.1°
2
4%
14:00
28°
1011.2 hPa 0.4 mm 15.4°
3
35%
20:00
24°
1012.4 hPa 1.1 mm 17.2°
3
61%
 06:04     21:35    Daglengte: 15:31 Vrijdag 27 Jul
02:00
18°
1014.9 hPa 0.2 mm 12.7°
4
12%
08:00
18°
1015.8 hPa 1.1 mm 14.7°
4
2%
14:00
26°
1016.3 hPa   11.5°
4
39%
20:00
22°
1015.4 hPa   13.7°
3
1%
 06:06     21:33    Daglengte: 15:27 Zaterdag 28 Jul
02:00
17°
1017.2 hPa   12.1°
1
18%
08:00
17°
1017.1 hPa   12.8°
1
18%
14:00
26°
1016.5 hPa 0.1 mm 11.9°
1
18%
20:00
25°
1016.0 hPa 0.3 mm 12.4°
1
25%
 06:07     21:32    Daglengte: 15:25 Zondag 29 Jul
02:00
16°
1017.0 hPa   10.9°
1
21%
08:00
17°
1017.1 hPa 0.1 mm 12.0°
0
26%
14:00
26°
1016.6 hPa 0.2 mm 11.5°
0
29%
20:00
26°
1015.9 hPa 0.6 mm 12.9°
1
25%
 06:09     21:30    Daglengte: 15:21 Maandag 30 Jul
02:00
17°
1016.8 hPa   11.3°
2
27%
08:00
18°
1016.8 hPa   12.8°
1
27%
14:00
27°
Voelt als: 27.2°
1016.1 hPa 0.1 mm 13.2°
1
22%
20:00
26°
1015.6 hPa 1.2 mm 14.7°
2
37%
 06:10     21:29    Daglengte: 15:19 Dinsdag 31 Jul
02:00
18°
1017.1 hPa 0.5 mm 12.5°
2
23%
08:00
18°
1017.3 hPa   13.4°
1
21%
14:00
27°
Voelt als: 27.2°
1016.7 hPa 0.1 mm 13.3°
1
20%
20:00
26°
1016.0 hPa 0.2 mm 13.9°
2
31%
 06:11     21:27    Daglengte: 15:16 Woensdag 01 Aug
02:00
17°
1017.0 hPa 0.5 mm 12.6°
2
17%
08:00
18°
1016.8 hPa 0.1 mm 13.5°
1
20%
14:00
28°
Voelt als: 27.6°
1016.0 hPa 0.2 mm 12.7°
1
12%
20:00
27°
1015.0 hPa 0.3 mm 13.5°
2
31%
 06:13     21:25    Daglengte: 15:12 Donderdag 02 Aug
02:00
18°
1015.7 hPa   12.8°
1
18%
  CAPE Lifted Index Hail Supercell Tornado SRH 3km CL BTM PRES CL TOP PRES Swiss DWD icon SMHI TS
 05:53     21:46    Daglengte: 15:53 Vandaag
07:00 0 J/kg 7.6 K 0 % 0 % 0 % 0 m²/s² 0 0 13.18 3
08:00 0 J/kg 8.1 K 0 % 0 % 0 % 0 m²/s² 0 0 14.01 3
09:00 0 J/kg 7.4 K 0 % 0 % 0 % 0 m²/s² 0 0 13.46 3
10:00 0 J/kg 7.3 K 0 % 0 % 0 % 0 m²/s² 0 0 13.36 1
11:00 0 J/kg 7.0 K 0 % 0 % 0 % 0 m²/s² 0 0 13.24 1
12:00 0 J/kg 6.2 K 0 % 0 % 0 % 0 m²/s² 0 0 12.47 2
13:00 0 J/kg 5.5 K 0 % 0 % 0 % 0 m²/s² 0 0 11.95 1
14:00 0 J/kg 4.6 K 0 % 0 % 0 % 0 m²/s² 0 0 11.05 0
15:00 0 J/kg 4.1 K 0 % 0 % 0 % 0 m²/s² 0 0 10.94 2
16:00 0 J/kg 3.9 K 0 % 0 % 0 % 0 m²/s² 0 0 10.95 2
17:00 0 J/kg 3.8 K 0 % 0 % 0 % 0 m²/s² 0 0 11.09 3
18:00 0 J/kg 3.8 K 0 % 0 % 0 % 0 m²/s² 0 0 11.36 1
19:00 0 J/kg 3.6 K 0 % 0 % 0 % 0 m²/s² 0 0 11.43 1
20:00 0 J/kg 3.3 K 0 % 0 % 0 % 0 m²/s² 0 0 11.43 2
21:00 3 J/kg 2.7 K 0 % 0 % 0 % 0 m²/s² 0 0 10.8 0
22:00 0 J/kg 2.8 K 0 % 0 % 0 % 0 m²/s² 0 0 10.33 0
23:00 0 J/kg 2.6 K 0 % 0 % 0 % 0 m²/s² 0 0 10.13 0
 05:54     21:45    Daglengte: 15:51 Morgen
00:00 0 J/kg 2.7 K 0 % 0 % 0 % 0 m²/s² 0 0 10.26 0
01:00 0 J/kg 2.9 K 0 % 0 % 0 % 0 m²/s² 0 0 10.22 0
02:00 0 J/kg 2.8 K 0 % 0 % 0 % 0 m²/s² 0 0 9.64 0
03:00 0 J/kg 2.7 K 0 % 0 % 0 % 0 m²/s² 0 0 9.15 0
04:00 0 J/kg 2.5 K 0 % 0 % 0 % 0 m²/s² 0 0 8.41 0
05:00 0 J/kg 2.8 K 0 % 0 % 0 % 0 m²/s² 0 0 8.56 0
06:00 0 J/kg 3.1 K 0 % 0 % 0 % 0 m²/s² 0 0 8.53 0
07:00 0 J/kg 3.5 K 0 % 0 % 0 % 0 m²/s² 0 0 8.81 0
08:00 0 J/kg 4.2 K 0 % 0 % 0 % 0 m²/s² 0 0 9.51 0
09:00 0 J/kg 4.5 K 0 % 0 % 0 % 0 m²/s² 0 0 9.81 0
10:00 0 J/kg 3.8 K 0 % 0 % 0 % 0 m²/s² 0 0 9.11 0
11:00 0 J/kg 3.7 K 0 % 0 % 0 % 0 m²/s² 0 0 9.01 0
12:00 0 J/kg 4.0 K 0 % 0 % 0 % 0 m²/s² 0 0 9.31 1
13:00 0 J/kg 4.1 K 0 % 0 % 0 % 0 m²/s² 0 0 9.56 2
14:00 0 J/kg 4.0 K 0 % 0 % 0 % 0 m²/s² 0 0 9.76 0
15:00 0 J/kg 4.1 K 0 % 0 % 0 % 0 m²/s² 0 0 10.01 2
16:00 0 J/kg 4.0 K 0 % 0 % 0 % 0 m²/s² 0 0 10.09 3
17:00 0 J/kg 3.9 K 0 % 0 % 0 % 0 m²/s² 0 0 10.35 3
18:00 0 J/kg 4.1 K 0 % 0 % 0 % 0 m²/s² 0 0 10.73 0
19:00 0 J/kg 4.2 K 0 % 0 % 0 % 0 m²/s² 0 0 10.86 1
20:00 0 J/kg 4.4 K 0 % 0 % 0 % 0 m²/s² 0 0 11.06 2
21:00 0 J/kg 2.7 K 0 % 0 % 0 % 0 m²/s² 0 0 9.18 3
22:00 0 J/kg 3.0 K 0 % 0 % 0 % 0 m²/s² 0 0 8.76 1
23:00 0 J/kg 3.2 K 0 % 0 % 0 % 0 m²/s² 0 0 8.66 3
 05:55     21:44    Daglengte: 15:49 Vrijdag 20 Jul
00:00 0 J/kg 3.4 K 0 % 0 % 0 % 0 m²/s² 0 0 8.47 3
01:00 0 J/kg 3.7 K 0 % 0 % 0 % 0 m²/s² 0 0 8.53 3
02:00 0 J/kg 2.7 K 0 % 0 % 0 % 0 m²/s² 0 0 7.29 3
03:00 0 J/kg 2.0 K 0 % 0 % 0 % 0 m²/s² 0 0 6.14 3
04:00 0 J/kg 1.8 K 0 % 0 % 0 % 0 m²/s² 0 0 5.31 3
05:00 0 J/kg 1.2 K 0 % 0 % 0 % 0 m²/s² 0 0 4.62 3
06:00 0 J/kg 1.6 K 0 % 0 % 0 % 0 m²/s² 0 0 4.66 3
07:00 0 J/kg 1.0 K 0 % 0 % 0 % 0 m²/s² 0 0 3.82 80
08:00 0 J/kg 1.3 K 0 % 0 % 0 % 0 m²/s² 0 0 2.95 3
09:00 0 J/kg 1.4 K 0 % 0 % 0 % 0 m²/s² 0 0 1.7 3
10:00 0 J/kg 1.3 K 0 % 0 % 0 % 0 m²/s² 0 0 1.33 3
11:00 54 J/kg 1.3 K 0 % 0 % 0 % 0 m²/s² 0 0 1.33 3
12:00 52 J/kg 1.3 K 0 % 0 % 0 % 0 m²/s² 0 0 1.3 3
13:00 93 J/kg 0.4 K 0 % 0 % 0 % 0 m²/s² 0 0 0.43 3
14:00 86 J/kg 0.0 K 0 % 0 % 0 % 0 m²/s² 0 0 0 3
15:00 87 J/kg 0.1 K 0 % 0 % 0 % 0 m²/s² 0 0 0.13 3
16:00 159 J/kg -0.5 K 0 % 0 % 0 % 0 m²/s² 0 0 -0.38 3
17:00 174 J/kg -0.6 K 0 % 0 % 0 % 0 m²/s² 0 0 -0.33 3
18:00 119 J/kg -0.3 K 0 % 0 % 0 % 0 m²/s² 0 0 -0.09 3
19:00 24 J/kg -1.1 K 0 % 0 % 0 % 0 m²/s² 0 0 -0.65 3
20:00 2 J/kg -1.3 K 0 % 0 % 0 % 0 m²/s² 0 0 -1.18 3
21:00 2 J/kg 0.2 K 0 % 0 % 0 % 0 m²/s² 0 0 0.2 2
22:00 10 J/kg -0.2 K 0 % 0 % 0 % 0 m²/s² 0 0 -0.17 3
23:00 0 J/kg -0.3 K 0 % 0 % 0 % 0 m²/s² 0 0 -0.3 3
 05:56     21:43    Daglengte: 15:47 Zaterdag 21 Jul
00:00 0 J/kg 0.1 K 0 % 0 % 0 % 0 m²/s² 0 0 0.1 3
01:00 0 J/kg 0.5 K 0 % 0 % 0 % 0 m²/s² 0 0 0.5 3
02:00 3 J/kg 0.8 K 0 % 0 % 0 % 0 m²/s² 0 0 0.89 3
03:00 1 J/kg 0.3 K 0 % 0 % 0 % 0 m²/s² 0 0 0.66 3
04:00 31 J/kg 0.0 K 0 % 0 % 0 % 0 m²/s² 0 0 0.39 3
05:00 49 J/kg -0.2 K 0 % 0 % 0 % 0 m²/s² 0 0 -0.08 3
06:00 55 J/kg 0.0 K 0 % 0 % 0 % 0 m²/s² 0 0 0 3
Temp Baro Wind Neerslag
  EWN Forecast EWN WRFDA DWD ICON FMI HIRLAM MET Norway GFS
 05:53     21:46    Daglengte: 15:53 Vandaag
08:00 16.3° 1018.7 hPa 1.4 m/s 0.0 mm 15.5° 1018.1 hPa 1.9 m/s 0.0 mm 16.3° 1019.1 hPa 1.3 m/s -2.0 mm 15.1° 1018.7 hPa 1.1 m/s 0.0 mm 16.4° 1018.5 hPa 1.7 m/s 0.0 mm 16.1° 1019.2 hPa 1.7 m/s
11:00 21.6° 1019.0 hPa 2.6 m/s 0.0 mm 20.4° 1018.3 hPa 2.7 m/s 0.0 mm 22.1° 1019.5 hPa 2.6 m/s 0.0 mm 22.2° 1019.0 hPa 2.8 m/s 0.0 mm 21.2° 1019.0 hPa 2.7 m/s 0.0 mm 20.9° 1019.3 hPa 2.5 m/s
14:00 24.8° 1018.4 hPa 3.0 m/s 0.0 mm 23.1° 1018.1 hPa 2.9 m/s 0.0 mm 25.3° 1018.5 hPa 3.2 m/s 0.0 mm 24.8° 1018.7 hPa 3.6 m/s 0.0 mm 24.3° 1018.4 hPa 2.7 m/s 0.0 mm 23.9° 1018.7 hPa 3.0 m/s
17:00 25.5° 1017.8 hPa 2.2 m/s 0.0 mm 24.4° 1017.4 hPa 2.4 m/s 0.0 mm 25.8° 1018.3 hPa 2.0 m/s 0.0 mm 25.5° 1017.8 hPa 2.8 m/s 0.0 mm 24.6° 1017.8 hPa 1.5 m/s 0.0 mm 24.9° 1018.3 hPa 2.6 m/s
20:00 24.2° 1017.4 hPa 2.9 m/s 0.0 mm 24.1° 1016.8 hPa 1.9 m/s 0.0 mm 24.5° 1017.5 hPa 2.1 m/s 0.0 mm 24.2° 1017.3 hPa 2.3 m/s 0.0 mm 22.9° 1017.6 hPa 4.1 m/s 0.0 mm 22.5° 1018.1 hPa 3.1 m/s
23:00 19.6° 1018.5 hPa 3.2 m/s 0.0 mm 18.9° 1018.4 hPa 2.9 m/s 0.0 mm 19.0° 1018.5 hPa 2.9 m/s 0.0 mm 20.9° 1018.8 hPa 2.5 m/s 0.0 mm 19.3° 1018.5 hPa 3.3 m/s 0.0 mm 17.5° 1019.5 hPa 2.8 m/s
 05:54     21:45    Daglengte: 15:51 Morgen
02:00 16.6° 1019.0 hPa 2.0 m/s 0.0 mm 16.3° 1018.3 hPa 2.3 m/s 0.0 mm 16.0° 1019.0 hPa 1.1 m/s 0.0 mm 16.3° 1019.4 hPa 1.9 m/s 0.0 mm 16.6° 1019.1 hPa 2.2 m/s 0.0 mm 15.5° 1019.7 hPa 1.8 m/s
05:00 14.9° 1018.5 hPa 1.1 m/s 0.0 mm 14.8° 1018.5 hPa 1.6 m/s 0.0 mm 15.1° 1018.6 hPa 0.5 m/s 0.0 mm 13.2° 1019.1 hPa 0.9 m/s 0.0 mm 14.7° 1018.3 hPa 2.0 m/s 0.0 mm 14.3° 1019.7 hPa 0.7 m/s
08:00 17.7° 1018.5 hPa 0.8 m/s 0.0 mm 17.9° 1018.3 hPa 0.6 m/s 0.0 mm 18.2° 1018.5 hPa 0.6 m/s 0.0 mm 15.5° 1019.1 hPa 0.9 m/s 0.0 mm 18.1° 1018.5 hPa 0.9 m/s 0.0 mm 17.0° 1019.5 hPa 1.4 m/s
11:00 24.0° 1018.6 hPa 1.7 m/s 0.0 mm 23.0° 1018.4 hPa 1.5 m/s 0.0 mm 24.7° 1018.7 hPa 2.3 m/s 0.0 mm 24.1° 1018.9 hPa 1.6 m/s 0.0 mm 23.6° 1018.6 hPa 1.7 m/s 0.0 mm 22.2° 1019.5 hPa 2.1 m/s
14:00 26.7° 1017.8 hPa 2.0 m/s 0.0 mm 25.3° 1017.5 hPa 2.0 m/s 0.0 mm 27.4° 1017.5 hPa 2.0 m/s 0.0 mm 26.7° 1017.9 hPa 2.6 m/s 0.0 mm 25.9° 1017.8 hPa 1.6 m/s 0.0 mm 26.3° 1018.4 hPa 0.9 m/s
17:00 27.6° 1016.7 hPa 2.7 m/s 0.0 mm 26.5° 1016.6 hPa 2.0 m/s 0.0 mm 28.5° 1016.1 hPa 3.0 m/s 0.0 mm 27.6° 1016.8 hPa 3.0 m/s 0.0 mm 26.6° 1016.8 hPa 2.0 m/s 0.0 mm 27.3° 1017.6 hPa 0.7 m/s
20:00 25.8° 1016.2 hPa 3.5 m/s 0.0 mm 26.2° 1015.5 hPa 2.1 m/s 0.0 mm 26.0° 1015.7 hPa 3.5 m/s 0.0 mm 25.3° 1016.5 hPa 4.5 m/s 0.0 mm 25.3° 1016.5 hPa 3.1 m/s 0.0 mm 24.6° 1017.0 hPa 1.5 m/s
23:00 20.5° 1016.9 hPa 2.5 m/s 0.0 mm 21.3° 1016.3 hPa 3.3 m/s 0.0 mm 20.5° 1016.0 hPa 2.8 m/s 0.0 mm 20.0° 1017.6 hPa 2.3 m/s 0.0 mm 19.9° 1017.1 hPa 2.1 m/s 0.0 mm 19.0° 1017.7 hPa 3.1 m/s
 05:55     21:44    Daglengte: 15:49 Vrijdag 20 Jul
02:00 17.5° 1016.3 hPa 2.2 m/s 0.0 mm 18.8° 1014.9 hPa 3.8 m/s 0.0 mm 18.2° 1015.9 hPa 1.7 m/s 0.0 mm 15.6° 1016.7 hPa 1.3 m/s 0.0 mm 16.6° 1016.4 hPa 2.2 m/s 0.0 mm 16.8° 1016.7 hPa 1.4 m/s
05:00 17.0° 1014.7 hPa 1.7 m/s 0.0 mm 16.9° 1014.0 hPa 2.5 m/s 0.0 mm 17.5° 1014.7 hPa 0.8 m/s 0.0 mm 15.4° 1015.1 hPa 1.7 m/s 0.0 mm 16.1° 1015.7 hPa 0.8 m/s
08:00 18.8° 1014.5 hPa 1.1 m/s 0.0 mm 18.2° 1013.4 hPa 1.1 m/s 0.0 mm 17.6° 1014.5 hPa 1.2 m/s 0.3 mm 18.9° 1014.9 hPa 0.4 m/s 0.0 mm 18.7° 1015.0 hPa 1.1 m/s
11:00 23.6° 1014.2 hPa 1.9 m/s 0.0 mm 22.6° 1013.2 hPa 0.9 m/s 0.0 mm 22.2° 1014.1 hPa 1.9 m/s 0.1 mm 24.7° 1014.6 hPa 2.4 m/s 0.0 mm 23.7° 1014.6 hPa 1.4 m/s
14:00 26.9° 1013.5 hPa 2.3 m/s 0.0 mm 21.7° 1013.4 hPa 1.4 m/s 0.1 mm 26.0° 1013.0 hPa 1.4 m/s 0.0 mm 27.7° 1013.9 hPa 2.4 m/s 0.0 mm 26.1° 1013.5 hPa 1.6 m/s
17:00 27.5° 1012.0 hPa 2.9 m/s 0.0 mm 22.9° 1012.0 hPa 4.6 m/s 0.7 mm 24.7° 1011.9 hPa 3.3 m/s 0.0 mm 28.0° 1012.4 hPa 2.0 m/s 0.0 mm 22.8° 1013.0 hPa 1.8 m/s
20:00 22.7° 1011.3 hPa 5.0 m/s 0.0 mm 20.3° 1010.7 hPa 5.8 m/s 1.5 mm 22.8° 1011.6 hPa 2.5 m/s 0.0 mm 21.9° 1011.9 hPa 5.7 m/s 0.4 mm 22.3° 1012.1 hPa 1.9 m/s
23:00 20.0° 1011.5 hPa 4.1 m/s 10.9 mm 17.7° 1011.4 hPa 5.3 m/s 38.2 mm 16.9° 1012.0 hPa 2.3 m/s 0.2 mm 19.9° 1011.7 hPa 4.4 m/s 17.9° 1012.5 hPa 2.3 m/s
 05:56     21:43    Daglengte: 15:47 Zaterdag 21 Jul
02:00 18.3° 1011.2 hPa 2.7 m/s 14.2 mm 17.3° 1010.9 hPa 3.6 m/s 59.1 mm 15.5° 1011.6 hPa 1.2 m/s 0.1 mm 18.0° 1011.5 hPa 3.1 m/s 15.7° 1012.5 hPa 3.2 m/s
05:00 17.0° 1011.0 hPa 2.8 m/s 0.0 mm 17.1° 1010.5 hPa 3.3 m/s 67.0 mm 15.1° 1010.8 hPa 1.3 m/s 0.1 mm 17.6° 1011.1 hPa 3.0 m/s 14.6° 1012.0 hPa 2.6 m/s
08:00 17.0° 1010.8 hPa 3.0 m/s 0.0 mm 17.6° 1011.2 hPa 3.8 m/s 68.5 mm 16.1° 1010.7 hPa 2.2 m/s 0.0 mm 17.1° 1010.8 hPa 3.0 m/s 16.3° 1012.3 hPa 4.1 m/s
11:00 20.9° 1011.7 hPa 3.4 m/s 0.0 mm 20.8° 1011.6 hPa 3.3 m/s 21.8° 1012.9 hPa 5.1 m/s 0.0 mm
14:00 22.8° 1012.1 hPa 3.7 m/s 0.0 mm 22.6° 1012.0 hPa 3.4 m/s 24.6° 1012.8 hPa 6.6 m/s 0.0 mm
17:00 23.0° 1012.2 hPa 4.4 m/s 0.0 mm 22.9° 1012.1 hPa 4.2 m/s 24.4° 1013.0 hPa 6.6 m/s 0.0 mm
20:00 23.0° 1012.4 hPa 4.9 m/s 0.0 mm 23.1° 1012.3 hPa 4.9 m/s 21.7° 1013.7 hPa 4.7 m/s 0.0 mm
23:00 19.8° 1013.6 hPa 4.0 m/s 0.0 mm 20.0° 1013.5 hPa 4.1 m/s 17.1° 1015.3 hPa 3.3 m/s 0.0 mm
 05:58     21:41    Daglengte: 15:43 Zondag 22 Jul
02:00 16.7° 1014.7 hPa 3.1 m/s 0.0 mm 16.9° 1014.6 hPa 3.2 m/s 14.8° 1016.2 hPa 2.4 m/s 0.0 mm
05:00 16.7° 1015.4 hPa 2.9 m/s 0.0 mm 17.0° 1015.4 hPa 3.0 m/s 13.5° 1016.3 hPa 1.7 m/s 0.0 mm
08:00 17.0° 1016.2 hPa 2.7 m/s 0.0 mm 17.1° 1016.1 hPa 2.8 m/s 16.2° 1017.2 hPa 1.3 m/s 0.0 mm
11:00 20.5° 1016.3 hPa 3.3 m/s 0.0 mm 20.5° 1016.2 hPa 3.4 m/s 21.6° 1017.4 hPa 1.5 m/s 0.0 mm
14:00 23.8° 1016.3 hPa 4.0 m/s 0.0 mm 23.8° 1016.3 hPa 4.1 m/s 23.9° 1016.8 hPa 2.5 m/s 0.0 mm
17:00 23.6° 1016.2 hPa 4.1 m/s 0.0 mm 23.6° 1016.1 hPa 4.2 m/s 23.9° 1016.8 hPa 2.5 m/s 0.1 mm
20:00 23.4° 1016.0 hPa 4.2 m/s 0.0 mm 23.4° 1015.9 hPa 4.4 m/s 23.0° 1017.2 hPa 2.0 m/s 0.1 mm
23:00 19.5° 1017.1 hPa 3.0 m/s 0.0 mm 19.6° 1017.0 hPa 3.1 m/s 18.3° 1018.6 hPa 1.9 m/s 0.0 mm
 05:59     21:40    Daglengte: 15:41 Maandag 23 Jul
02:00 15.8° 1018.1 hPa 1.7 m/s 0.0 mm 15.8° 1018.0 hPa 1.8 m/s 16.0° 1019.1 hPa 0.9 m/s 0.0 mm
05:00 16.9° 1018.2 hPa 1.2 m/s 0.0 mm 17.1° 1018.1 hPa 1.3 m/s 15.0° 1018.8 hPa 0.4 m/s 0.0 mm
08:00 18.3° 1018.3 hPa 0.8 m/s 0.0 mm 18.3° 1018.2 hPa 0.8 m/s 17.8° 1018.9 hPa 0.7 m/s 0.0 mm
11:00 21.8° 1018.0 hPa 1.3 m/s 0.0 mm 21.6° 1018.0 hPa 1.4 m/s 23.8° 1018.5 hPa 0.4 m/s 0.0 mm
14:00 25.1° 1017.7 hPa 1.8 m/s 0.0 mm 24.9° 1017.7 hPa 1.9 m/s 27.8° 1017.2 hPa 0.6 m/s 0.0 mm
17:00 25.2° 1016.9 hPa 2.3 m/s 0.0 mm 24.9° 1017.0 hPa 2.4 m/s 27.8° 1015.8 hPa 1.7 m/s 0.0 mm
20:00 25.1° 1016.2 hPa 2.8 m/s 0.0 mm 25.0° 1016.3 hPa 2.9 m/s 26.1° 1015.2 hPa 2.1 m/s 0.0 mm
23:00 22.0° 1016.0 hPa 2.9 m/s 0.0 mm 22.1° 1016.0 hPa 3.0 m/s 21.6° 1015.5 hPa 2.6 m/s 0.0 mm
 06:00     21:39    Daglengte: 15:39 Dinsdag 24 Jul
02:00 19.2° 1015.7 hPa 3.0 m/s 0.0 mm 19.1° 1015.8 hPa 3.0 m/s 19.9° 1014.8 hPa 3.0 m/s 0.0 mm
05:00 19.3° 1014.8 hPa 2.6 m/s 0.0 mm 19.4° 1015.0 hPa 2.6 m/s 18.5° 1013.7 hPa 2.4 m/s 0.0 mm
08:00 19.7° 1014.0 hPa 2.2 m/s 0.0 mm 19.6° 1014.1 hPa 2.2 m/s 20.2° 1013.4 hPa 2.3 m/s 0.0 mm
11:00 24.8° 1013.2 hPa 2.1 m/s 0.0 mm 24.7° 1013.2 hPa 2.0 m/s 26.2° 1012.5 hPa 2.7 m/s 0.0 mm
14:00 29.8° 1012.3 hPa 2.0 m/s 0.0 mm 29.8° 1012.4 hPa 1.8 m/s 29.3° 1011.0 hPa 3.6 m/s 0.0 mm
17:00 29.2° 1011.3 hPa 2.4 m/s 0.0 mm 29.1° 1011.5 hPa 2.3 m/s 29.8° 1009.7 hPa 2.9 m/s 0.0 mm
20:00 28.4° 1010.4 hPa 2.7 m/s 0.0 mm 28.5° 1010.5 hPa 2.8 m/s 27.0° 1009.2 hPa 2.0 m/s 0.0 mm
23:00 25.2° 1010.6 hPa 2.6 m/s 0.0 mm 25.2° 1010.6 hPa 2.6 m/s 25.0° 1009.6 hPa 2.2 m/s 0.0 mm
 06:02     21:37    Daglengte: 15:35 Woensdag 25 Jul
02:00 22.0° 1010.7 hPa 2.4 m/s 0.0 mm 21.9° 1010.8 hPa 2.4 m/s 23.2° 1009.1 hPa 2.8 m/s 0.0 mm
05:00 21.4° 1010.5 hPa 2.3 m/s 0.0 mm 21.4° 1010.7 hPa 2.2 m/s 20.5° 1008.4 hPa 3.0 m/s 0.0 mm
08:00 21.1° 1010.4 hPa 2.2 m/s 0.0 mm 21.0° 1010.6 hPa 2.1 m/s 21.8° 1008.0 hPa 3.3 m/s 0.0 mm
14:00 29.4° 1010.1 hPa 2.0 m/s 5.0 mm 29.8° 1010.3 hPa 1.7 m/s 25.2° 1007.3 hPa 5.6 m/s 5.0 mm
20:00 28.0° 1009.5 hPa 1.8 m/s 1.8 mm 28.7° 1009.6 hPa 1.5 m/s 20.5° 1008.8 hPa 5.3 m/s 1.8 mm
 06:03     21:36    Daglengte: 15:33 Donderdag 26 Jul
02:00 20.4° 1010.3 hPa 2.0 m/s 1.0 mm 21.0° 1010.2 hPa 1.7 m/s 13.5° 1011.3 hPa 5.3 m/s 1.0 mm
08:00 21.3° 1010.4 hPa 1.9 m/s 0.0 mm 21.9° 1010.2 hPa 1.4 m/s 14.2° 1012.4 hPa 7.4 m/s 0.0 mm
14:00 28.3° 1011.2 hPa 2.7 m/s 0.4 mm 28.9° 1011.0 hPa 2.3 m/s 21.5° 1013.4 hPa 7.4 m/s 0.4 mm
20:00 23.9° 1012.4 hPa 2.6 m/s 0.6 mm 24.2° 1012.3 hPa 2.4 m/s 20.4° 1013.9 hPa 5.0 m/s 0.6 mm
 06:04     21:35    Daglengte: 15:31 Vrijdag 27 Jul
02:00 18.2° 1014.9 hPa 3.7 m/s 0.2 mm 18.3° 1014.9 hPa 3.5 m/s 16.6° 1014.6 hPa 5.9 m/s 0.2 mm
08:00 17.7° 1015.8 hPa 3.6 m/s 0.5 mm 17.8° 1015.9 hPa 3.4 m/s 16.6° 1014.7 hPa 5.8 m/s 0.5 mm
14:00 26.1° 1016.3 hPa 3.8 m/s 0.0 mm 26.3° 1016.4 hPa 3.6 m/s 23.6° 1014.9 hPa 6.5 m/s 0.1 mm
20:00 22.2° 1015.4 hPa 3.0 m/s 0.0 mm 22.2° 1015.4 hPa 3.0 m/s 0.0 mm
 06:06     21:33    Daglengte: 15:27 Zaterdag 28 Jul
02:00 16.5° 1017.2 hPa 0.6 m/s 0.0 mm
08:00 17.4° 1017.1 hPa 0.7 m/s 0.0 mm
14:00 26.3° 1016.5 hPa 0.7 m/s 0.1 mm
20:00 25.1° 1016.0 hPa 1.2 m/s 0.3 mm
 06:07     21:32    Daglengte: 15:25 Zondag 29 Jul
02:00 16.5° 1017.0 hPa 0.9 m/s 0.0 mm
08:00 17.3° 1017.1 hPa 0.5 m/s 0.1 mm
14:00 26.2° 1016.6 hPa 0.4 m/s 0.2 mm
20:00 25.7° 1015.9 hPa 1.2 m/s 0.6 mm
 06:09     21:30    Daglengte: 15:21 Maandag 30 Jul
02:00 17.0° 1016.8 hPa 1.9 m/s 0.0 mm
08:00 18.1° 1016.8 hPa 1.2 m/s 0.0 mm
14:00 27.3° 1016.1 hPa 1.3 m/s 0.1 mm
20:00 25.9° 1015.6 hPa 2.5 m/s 1.2 mm
 06:10     21:29    Daglengte: 15:19 Dinsdag 31 Jul
02:00 17.5° 1017.1 hPa 1.7 m/s 0.5 mm
08:00 18.3° 1017.3 hPa 0.8 m/s 0.0 mm
14:00 27.3° 1016.7 hPa 1.2 m/s 0.1 mm
20:00 26.4° 1016.0 hPa 2.4 m/s 0.2 mm
 06:11     21:27    Daglengte: 15:16 Woensdag 01 Aug
02:00 17.4° 1017.0 hPa 1.8 m/s 0.5 mm
08:00 18.1° 1016.8 hPa 1.1 m/s 0.1 mm
14:00 28.0° 1016.0 hPa 1.0 m/s 0.2 mm
20:00 26.8° 1015.0 hPa 1.9 m/s 0.3 mm
 06:13     21:25    Daglengte: 15:12 Donderdag 02 Aug
02:00 17.9° 1015.7 hPa 1.1 m/s 0.0 mm
FMI Hirlam - 7.5 km EWN WRFDA - 12 km DWD ICON - 7 km GFS - 25 km Basiskaart






























































Updatetijd (Europe/Amsterdam) Resolutie Lengte Stap
FMI Hirlam 01:00, 07:00, 13:00, 19:00 7.5 km 49h 1h
EWN WRFDA 03:30, 09:30, 15:30, 21:30 12 km 73h 1h
DWD ICON 00:45, 06:45, 12:45, 18:45 7 km 75h 1h
GFS 03:15, 09:15, 15:15, 21:15 25 km 237h 3h
30+ mm
25-30 mm
20-25 mm
15-20 mm
10-15 mm
6-10 mm
4-6 mm
2-4 mm
1-2 mm
0.5-1 mm
0.2-0.5 mm
0.1-0.2 mm
30+ mm
25-30 mm
20-25 mm
15-20 mm
10-15 mm
6-10 mm
4-6 mm
2-4 mm
1-2 mm
0.5-1 mm
0.2-0.5 mm
0.1-0.2 mm
Sneeuwval
Natte sneeuw
Hagel
Vorst
30+ mm
25-30 mm
20-25 mm
15-20 mm
10-15 mm
6-10 mm
4-6 mm
2-4 mm
1-2 mm
0.5-1 mm
0.2-0.5 mm
0.1-0.2 mm
Sneeuwval
Natte sneeuw
Hagel
Vorst
Onweer
50 mm
40 mm
30 mm
26 mm
22 mm
18 mm
14 mm
10 mm
9 mm
8 mm
7 mm
6 mm
5 mm
4.5 mm
4 mm
3.5 mm
3 mm
2.5 mm
2 mm
1.5 mm
1 mm
0.8 mm
0.6 mm
0.4 mm
0.2 mm
0.05 mm
35°
30°
25°
20°
15°
10°
-5°
-10°
-15°
-20°
-25°
-30°
-35°
33> m/s
29 m/s
25 m/s
21 m/s
17 m/s
14 m/s
11 m/s
8 m/s
5 m/s
3 m/s
0 m/s
2600 J/kg
2400 J/kg
2200 J/kg
2000 J/kg
1800 J/kg
1600 J/kg
1400 J/kg
1200 J/kg
1000 J/kg
800 J/kg
600 J/kg
400 J/kg
200 J/kg
70 dBZ
65 dBZ
60 dBZ
55 dBZ
50 dBZ
45 dBZ
40 dBZ
35 dBZ
30 dBZ
25 dBZ
20 dBZ
15 dBZ
10 dBZ
5 dBZ
-1 K
-2 K
-3 K
-4 K
-5 K
-6 K
-7 K
-8 K
-9 K
950 m²/s²
900 m²/s²
850 m²/s²
800 m²/s²
750 m²/s²
700 m²/s²
650 m²/s²
600 m²/s²
550 m²/s²
500 m²/s²
450 m²/s²
400 m²/s²
350 m²/s²
300 m²/s²
250 m²/s²
200 m²/s²
150 m²/s²
100 m²/s²
46 m/s
44 m/s
42 m/s
40 m/s
38 m/s
36 m/s
34 m/s
32 m/s
30 m/s
28 m/s
26 m/s
24 m/s
22 m/s
20 m/s
16 m/s
12 m/s
8 m/s
4 m/s
30 m/s
28 m/s
26 m/s
24 m/s
22 m/s
20 m/s
18 m/s
16 m/s
14 m/s
12 m/s
10 m/s
8 m/s
6 m/s
4 m/s
2 m/s
3.0
2.8
2.6
2.4
2.2
2.0
1.8
1.6
1.4
1.2
1.0
0.8
0.6
0.4
0.2
15
14
13
12
11
10
9
8
7
6
5
4
3
2
1
90%
80%
70%
60%
50%
40%
30%
20%
10%
42
40
38
36
34
32
30
28
26
24
22
20
18
16
14
12
90+ cm
80-90 cm
70-80 cm
60-70 cm
50-60 cm
40-50 cm
30-40 cm
20-30 cm
10-20 cm
1-10 cm
Sneeuwval
Natte sneeuw
Regen
>120 mm
115 mm
110 mm
105 mm
100 mm
95 mm
90 mm
85 mm
80 mm
75 mm
70 mm
65 mm
60 mm
55 mm
50 mm
45 mm
45 mm
40 mm
35 mm
30 mm
25 mm
20 mm
15 mm
10 mm
5 mm
0.1 mm
960 hPa
880 hPa
800 hPa
720 hPa
640 hPa
560 hPa
584 gpdm
568 gpdm
552 gpdm
536 gpdm
520 gpdm
504 gpdm
488 gpdm
Extreem zwaar Noodweer Kans op onweer
15% 15% 5% 50% 15%

Dag




Kaart






35°
30°
25°
20°
15°
10°
-5°
-10°
-15°
-20°
-25°
-30°
-35°
33> m/s
29 m/s
25 m/s
21 m/s
17 m/s
14 m/s
11 m/s
8 m/s
5 m/s
3 m/s
0 m/s
Extreem zwaar Noodweer Kans op onweer
15% 15% 5% 50% 15%
>120 mm
115 mm
110 mm
105 mm
100 mm
95 mm
90 mm
85 mm
80 mm
75 mm
70 mm
65 mm
60 mm
55 mm
50 mm
45 mm
45 mm
40 mm
35 mm
30 mm
25 mm
20 mm
15 mm
10 mm
5 mm
0.1 mm
Onweer risico kaarten - De groene en gele kleur geeft de kans op onweer aan binnen 40 km van een punt. Oranje, rood en violet hebben hetzelfde niveau zoals je het ziet op estofex.org waaronder ook de kans op hagel en supercells.

dBZ - dBZ staat voor decibel ten opzichte van Z.

Cape - Convective available potential energy (CAPE), is de totale hoeveelheid energie die een luchtpakketje nodig heeft om zover mogelijk te stijgen in de atmosfeer.

K Index - K-Index wordt berekend door de Vertical Totals (VT) en het verschil tussen de 850 hPa temperatuur en de 700 hPa dauwpuntsdepressie (Tdd 700) bij elkaar op te tellen.

TT Index - Convectie index wordt gebruikt voor het voorspellen van zware buien of onweer.

WRF - The Weather Research and Forecasting (WRF) is een volgende generatie mesoscale numeriek weersvoorspelling systeem ontworpen om zowel de operationele planning als het atmosferisch onderzoek te dienen. WRF is a cooperatie tussen het National Center for Atmospheric Research (NCAR), National Centers for Environmental Prediction (NCEP), Forecast Systems Laboratory (FSL), Air Force Weather Agency (AFWA), Naval Research Laboratory, University of Oklahoma, en de Federal Aviation Administration (FAA). Deze software draait op onze server.

WRFDA - Een meer geavanceerde versie van WRF

Arome - Het 2.5 km Arome model. Verzorgd door het Noors Meteorologisch Instituut.

MET Norway - De proff-default 4km meteorological data is een beste keus selectie van meteorologische modellen gebruikt door met.no die zijn geïnterpoleerd tot een gemeenschappelijke dataset. Verzorgd door het Noorse Meteorologisch Instituut.

SMHI - Het Hirlam model verzorgd door het Zweeds meteorologisch instituut.

FMI - Het Hirlam model verzorgd door het Fins meteorologisch instituut. Dekking alleen Finland.

GFS - Het Global Forecast Systeem (GFS) is een wereldwijd numerieke weersvoorspelling computermodel, gerund door NOAA.

GEM-GDPS - Het GEM-GDPS is a wereldwijd numeriek weersvoorspelling computermodel verzorgd door het Canadees Meteorologisch Centrum.

Credits/Info: Dank aan Stefan Gofferje van sääkeskus.fi voor enkele formules van GrADS. Info: Wikipedia.

Betrouwbaarheid van de verwachting

NB! 2015-03-29: Rebuilding the accuracy-test!

EWNACC
Day 1 Good forecasts

Dag 1 Tmax

Dag 2 Tmax

Geladen verwachtingen TOP 50

Totaal geladen verwachtingen:
Plaats Latitude Longitude Verwachtingen Plaats Latitude Longitude Verwachtingen